User: anonymous   Login
Location: Boissi�res
(45.2500°N, 2.3667°E)
Time: 14:18:49
(UTC+00:00)
Language:

CSL-04 Debris - Orbit

View from above orbital plane
View from above orbital plane
View from above satellite
View from above satellite

Ground track
Ground track

The orbit data is extracted from the following two-line orbital elements,

1 25733U 99025D   21126.61935878  .00000097  00000-0  71091-4 0  9992
2 25733  98.9126 161.9593 0016051 121.9753 238.2984 14.16457006135449
Epoch (UTC): 06 May 2021 14:51:52
Eccentricity: 0.0016051
inclination: 98.9126°
perigee height: 826 km
apogee height: 849 km
right ascension of ascending node: 161.9593°
argument of perigee: 121.9753°
revolutions per day: 14.16457006
mean anomaly at epoch: 238.2984°
orbit number at epoch: 13544

The dashed part of the orbit path shows where the satellite is in the earth's shadow,  

DLR